Estherville, IA

9:23 PM CST on December 02, 2016 (GMT -0600)
Estherville Municipal

Weather History for KEST - June, 2013

Change the Weather History Date:

Monday, June 24, 2013

  Actual Average Record
Temperature  
Mean Temperature 70 °F 70 °F  
Max Temperature 77 °F 82 °F 98 °F (1954)
Min Temperature 63 °F 59 °F 45 °F (2004)
Degree Days  
Heating Degree Days 0 0  
Month to date heating degree days 54 40  
Since 1 June heating degree days 54 40  
Since 1 July heating degree days 7910 7738  
Cooling Degree Days 5 6  
Month to date cooling degree days 99 97  
Year to date cooling degree days 132 133  
Since 1 June cooling degree days 99 97  
Growing Degree Days 20 (Base 50)    
Moisture  
Dew Point 65 °F    
Average Humidity 79    
Maximum Humidity 93    
Minimum Humidity 64    
Precipitation  
Precipitation 0.05 in 0.18 in 2.02 in (1993)
Month to date precipitation 2.49 3.62  
Sea Level Pressure  
Sea Level Pressure 29.86 in    
Wind  
Wind Speed 7 mph (South)    
Max Wind Speed 21 mph    
Max Gust Speed 26 mph    
Visibility 8 miles    
Events Rain , Thunderstorm    
T = Trace of Precipitation, MM = Missing Value Source: NWS Daily Summary

Daily Weather History Graph

Daily Weather History Graph

Search for Another Location

Airport or City:

Trip Planner

Search our weather history database for the weather conditions in past years. The results will help you decide how hot, cold, wet, or windy it might be!

Date:

Astronomy

Jun. 24, 2013 Rise Set
Actual Time 5:39 AM CDT 9:03 PM CDT
Civil Twilight 5:03 AM CDT 9:39 PM CDT
Nautical Twilight 4:16 AM CDT 10:26 PM CDT
Astronomical Twilight 3:18 AM CDT 11:24 PM CDT
Moon 10:02 PM CDT (6/24) 7:11 AM CDT (6/24)
Length of Visible Light 16h 35m
Length of Day
15h 24m
Full, 98% of the Moon is Illuminated
Jun 24
Full
Jun 29
Last Quarter
Jul 8
New
Jul 15
First Quarter
Jul 22
Full

Hourly Weather History & Observations

Time (CDT) Temp. Dew Point Humidity Pressure Visibility Wind Dir Wind Speed Gust Speed Precip Events Conditions
12:52 AM 66.9 °F 64.0 °F 90% 29.90 in 10.0 mi SSW 3.5 mph - N/A   Clear
1:52 AM 66.0 °F 64.0 °F 93% 29.91 in 7.0 mi South 4.6 mph - N/A   Clear
2:52 AM 64.9 °F 63.0 °F 93% 29.89 in 9.0 mi Calm Calm - N/A   Clear
3:52 AM 64.9 °F 63.0 °F 93% 29.89 in 7.0 mi Calm Calm - N/A   Clear
4:52 AM 64.0 °F 62.1 °F 93% 29.87 in 5.0 mi Calm Calm - N/A   Clear
5:32 AM 64.4 °F 62.6 °F 94% 29.90 in 6.0 mi Calm Calm - N/A   Mostly Cloudy
5:52 AM 64.9 °F 63.0 °F 93% 29.89 in 6.0 mi Calm Calm - N/A   Overcast
6:15 AM 66.2 °F 64.4 °F 94% 29.91 in 5.0 mi Calm Calm - N/A   Overcast
6:52 AM 68.0 °F 64.9 °F 90% 29.87 in 4.0 mi Calm Calm - N/A   Mostly Cloudy
7:52 AM 71.1 °F 68.0 °F 90% 29.86 in 5.0 mi East 4.6 mph - N/A   Partly Cloudy
8:02 AM 71.6 °F 68.0 °F 88% 29.88 in 4.0 mi East 3.5 mph - N/A   Scattered Clouds
8:12 AM 71.6 °F 68.0 °F 88% 29.90 in 4.0 mi Calm Calm - N/A   Mostly Cloudy
8:52 AM 72.0 °F 69.1 °F 91% 29.89 in 5.0 mi SSE 5.8 mph - N/A   Overcast
9:21 AM 71.6 °F 69.8 °F 94% 29.92 in 5.0 mi SSE 6.9 mph - N/A   Overcast
9:52 AM 72.0 °F 69.1 °F 91% 29.90 in 5.0 mi South 4.6 mph - N/A   Overcast
10:14 AM 71.6 °F 69.8 °F 94% 29.93 in 2.0 mi South 13.8 mph 18.4 mph 0.01 in Rain Light Rain
10:23 AM 71.6 °F 68.0 °F 88% 29.92 in 7.0 mi SW 17.3 mph 26.5 mph 0.01 in Rain Light Rain
10:34 AM 71.6 °F 64.4 °F 78% 29.90 in 10.0 mi WSW 16.1 mph 26.5 mph 0.01 in   Overcast
10:52 AM 71.1 °F 64.0 °F 78% 29.88 in 6.0 mi West 10.4 mph 20.7 mph 0.03 in Rain , Thunderstorm Rain
11:01 AM 71.6 °F 62.6 °F 73% 29.89 in 6.0 mi West 11.5 mph 20.7 mph 0.01 in Rain , Thunderstorm Light Rain
11:22 AM 71.6 °F 60.8 °F 69% 29.85 in 10.0 mi West 10.4 mph 21.9 mph 0.02 in Rain Light Rain
11:52 AM 71.1 °F 63.0 °F 75% 29.82 in 10.0 mi SSE 10.4 mph - 0.02 in   Scattered Clouds
12:52 PM 71.1 °F 66.0 °F 84% 29.84 in 10.0 mi SE 11.5 mph - N/A   Clear
1:52 PM 71.1 °F 64.0 °F 78% 29.78 in 10.0 mi ESE 13.8 mph 20.7 mph N/A   Clear
2:52 PM 70.0 °F 64.0 °F 81% 29.82 in 10.0 mi SSE 9.2 mph - N/A   Clear
3:52 PM 73.9 °F 64.9 °F 73% 29.82 in 10.0 mi South 16.1 mph 24.2 mph N/A   Clear
4:52 PM 77.0 °F 64.0 °F 64% 29.82 in 10.0 mi South 18.4 mph 25.3 mph N/A   Clear
5:52 PM 73.0 °F 64.0 °F 73% 29.82 in 10.0 mi SSE 11.5 mph - 0.00 in   Overcast
6:52 PM 73.0 °F 66.0 °F 79% 29.80 in 10.0 mi SSE 12.7 mph - N/A   Overcast
7:52 PM 72.0 °F 66.0 °F 81% 29.80 in 10.0 mi South 8.1 mph - N/A   Mostly Cloudy
8:52 PM 72.0 °F 64.9 °F 78% 29.78 in 10.0 mi SSE 8.1 mph - N/A   Overcast
9:52 PM 69.1 °F 64.9 °F 87% 29.78 in 10.0 mi SE 5.8 mph - N/A   Partly Cloudy
10:52 PM 68.0 °F 64.9 °F 90% 29.81 in 10.0 mi SSE 4.6 mph - N/A   Partly Cloudy
11:52 PM 66.9 °F 64.9 °F 93% 29.80 in 10.0 mi SE 4.6 mph - N/A   Clear